Tracking 28790 objects as of 19-Apr-2024
HD Live streaming from Space Station
objects crossing your sky now

THOR 1 (MARCOPOLO 2)

Track THOR 1 (MARCOPOLO 2) now!
THOR 1 (MARCOPOLO 2) is classified as:


NORAD ID: 20762
Int'l Code: 1990-074A
Perigee: 36,091.1 km
Apogee: 36,096.0 km
Inclination: 14.2 °
Period: 1,451.4 minutes
Semi major axis: 42464 km
RCS: 2.5118 m2 (large)
Launch date: August 18, 1990
Source: Norway (NOR)
Launch site: AIR FORCE EASTERN TEST RANGE (AFETR)
Your satellite tracking list
Your tracking list is empty




NASA's NSSDC Master Catalog

Two Line Element Set (TLE):
1 20762U 90074A   24109.56329267 -.00000314  00000-0  00000-0 0  9992
2 20762  14.1639  12.3979 0000571 190.0777 355.2224  0.99211767 38374
Source of the keplerian elements: AFSPC